Regional Weather Roundup
Issued by NWS

Home | Current Version | Previous Version | Text Only | Print | Product List | Glossary On
Versions: 1 2 3 4 5 6 7 8 9 10 11 12 13 14 15 16 17 18 19 20 21 22 23 24 25 26 27 28 29 30 31 32 33 34 35 36 37 38 39 40 41 42 43 44 45 46 47 48 49 50
000
ASUS44 KMEG 212110
RWRTN
TENNESSEE HOURLY STATE WEATHER ROUNDUP
NATIONAL WEATHER SERVICE MEMPHIS TN
400 PM CDT MON AUG 21 2017

TNZ002-004-019-021-049-052-054-088>092-212200-
WEST TENNESSEE

CITY           SKY/WX    TMP DP  RH WIND       PRES   REMARKS
MEMPHIS INTL   CLOUDY    93  75  55 E3        30.08F HX 104
NWS MEMPHIS      N/A     93 N/A N/A MISG        N/A
JACKSON        MOSUNNY   91  76  61 S3        30.08F HX 103
DYERSBURG      MOSUNNY   92  77  61 S6        30.07F HX 105
SOMERVILLE     SUNNY     86  79  79 CALM      30.08F HX  99
COVINGTON      SUNNY     91  75  59 VRB3      30.07F HX 102
UNION CITY     SUNNY     91  79  66 SW6       30.06F HX 107
BOLIVAR        SUNNY     91  75  59 CALM      30.08F HX 102
PARIS          MOSUNNY   91  75  59 SW6       30.07F HX 102
HUNTINGDON     MOSUNNY   91  75  59 S6        30.07F HX 102
LEXINGTON      SUNNY     91  73  55 VRB3      30.08F HX 100
SELMER         CLOUDY    90  73  58 CALM      30.09S HX  98
SAVANNAH       SUNNY     93  73  52 SW5       30.07F HX 102
$$

TNZ008-025-027-028-033-062-065-066-212200-
NORTH MIDDLE TENNESSEE

CITY           SKY/WX    TMP DP  RH WIND       PRES   REMARKS
NASHVILLE      MOSUNNY   95  69  42 W7        30.11F HX 100
PORTLAND       MOSUNNY   90  70  51 SE3       30.11F HX  95
CLARKSVILLE    SUNNY     90  70  51 VRB5      30.09F HX  95
SMYRNA         MOSUNNY   90  70  51 CALM      30.11F HX  95
COOKEVILLE     SUNNY     90  66  45 CALM      30.14S HX  92
GALLATIN       MOSUNNY   93  68  43 VRB6      30.12F HX  97
CROSSVILLE     MOSUNNY   82  68  62 CALM      30.21F
$$

TNZ061-075-076-078-094-096-097-212200-
SOUTH MIDDLE TENNESSEE

CITY           SKY/WX    TMP DP  RH WIND       PRES   REMARKS
FAYETTEVILLE   SUNNY     90  68  48 CALM      30.13S HX  93
TULLAHOMA      MOSUNNY   90  57  33 CALM      30.15F
WINCHESTER     MOSUNNY   90  68  48 CALM      30.14S HX  93
MCMINNVILLE    MOSUNNY   91  70  49 CALM      30.14F HX  97
COLUMBIA       SUNNY     91  70  49 S5        30.09F HX  97
SHELBYVILLE    SUNNY     90  66  45 CALM      30.12F HX  92
$$

TNZ017-018-042-046-047-212200-
NORTHEAST TENNESSEE

CITY           SKY/WX    TMP DP  RH WIND       PRES   REMARKS
TRI CITIES     MOSUNNY   88  68  51 SE6       30.19F HX  91
ELIZABETHTON   MOSUNNY   88  64  45 CALM      30.20S
$$

TNZ012-013-036-069-073-074-212200-
CENTRAL EAST TENNESSEE

CITY           SKY/WX    TMP DP  RH WIND       PRES   REMARKS
KNOXVILLE      MOSUNNY   90  64  42 CALM      30.14F HX  91
OAK RIDGE      MOSUNNY   90  65  43 CALM      30.16F HX  92
DOWNTOWN KNOXV SUNNY     91  68  46 CALM      30.14S HX  95
GATLINBURG     SUNNY     90  63  40 NW5       30.14F HX  90
MORRISTOWN     PTSUNNY   90  68  48 CALM      30.16F HX  93
JACKSBORO      SUNNY     88  66  48 SW6       30.19F HX  90
$$

TNZ083-085-099-212200-
SOUTHEAST TENNESSEE

CITY           SKY/WX    TMP DP  RH WIND       PRES   REMARKS
CHATTANOOGA    MOSUNNY   90  66  45 NE5       30.13F HX  92
DAYTON         PTCLDY    91  72  52 S6        30.12F HX  98
$$

SKY/WX REPORTED AS FAIR MEANS FEW OR NO CLOUDS BELOW
12 THOUSAND FEET.





USA.gov is the U.S. government's official web portal to all federal, state and local government web resources and services.